Regional Weather Roundup
Issued by NWS

Home | Current Version | Previous Version | Graphics & Text | Print | Product List | Glossary On
Versions: 1 2 3 4 5 6 7 8 9 10 11 12 13 14 15 16 17 18 19 20 21 22 23 24 25 26 27 28 29 30 31 32 33 34 35 36 37 38 39 40 41 42 43 44 45 46 47 48 49 50
000
ASUS43 KTOP 061559
RWRKS

WEATHER ROUNDUP FOR KANSAS
NATIONAL WEATHER SERVICE GOODLAND KS
1100 AM CDT FRI MAY 06 2016

NOTE:  "FAIR" INDICATES FEW OR NO CLOUDS BELOW 12,000 FEET WITH NO
SIGNIFICANT WEATHER AND/OR OBSTRUCTIONS TO VISIBILITY.

KSZ001>006-013>018-027>032-041>047-061700-
NORTHWEST KANSAS

CITY           SKY/WX    TMP DP  RH WIND       PRES   REMARKS
GOODLAND       CLOUDY    65  48  54 S16       29.98S
HAYS           SUNNY     75  48  38 S24       30.02F
HILL CITY      MOSUNNY   75  50  41 S22       30.00F
RUSSELL        SUNNY     76  48  37 S22       30.02F
$$

KSZ061>065-074>080-084>089-061700-
SOUTHWEST KANSAS

CITY           SKY/WX    TMP DP  RH WIND       PRES   REMARKS
DODGE CITY     SUNNY     71  48  43 S30G37    30.05F
ELKHART          N/A     75  41  29 SW14        N/A
GARDEN CITY    SUNNY     73  48  41 S17       30.02F
GREAT BEND     SUNNY     75  48  38 S17G28    30.04S
LIBERAL        SUNNY     72  50  46 SE17G23   30.07S
$$

KSZ066>073-081>083-090>101-061700-
SOUTHEAST KANSAS

CITY           SKY/WX    TMP DP  RH WIND       PRES   REMARKS
CHANUTE        SUNNY     71  47  42 S10       30.13R
COFFEYVILLE    SUNNY     72  49  44 S12       30.13F
HUTCHINSON     SUNNY     77  48  35 S16G22    30.08S
MEDICINE LODGE   N/A     75  47  36 S14       30.08F
NEWTON         MOSUNNY   73  48  40 S13       30.12S
PARSONS        SUNNY     71  48  43 SW9       30.14S
WICHITA INTL   MOSUNNY   74  50  42 S13       30.09S
WICHITA JABRA  SUNNY     74  49  41 S10       30.09F
WICHITA MCCONL SUNNY     74  49  41 S10       30.09F
WINFIELD       SUNNY     74  53  48 S10       30.36R
$$

KSZ007>012-019>026-033>040-048>060-102>105-061700-
NORTHEAST KANSAS

CITY           SKY/WX    TMP DP  RH WIND       PRES   REMARKS
CONCORDIA      SUNNY     75  46  35 S16       30.04F
EMPORIA        SUNNY     74  48  39 S12       30.10S
LAWRENCE       SUNNY     73  51  46 S9        30.08S
MANHATTAN      SUNNY     76  52  43 S6        30.06F
OLATHE IND     SUNNY     72  47  40 SW12      30.11R
OLATHE EXE     SUNNY     70  47  43 SW8       30.10R
SALINA         SUNNY     75  47  36 S17       30.06F
TOPEKA BILLARD SUNNY     74  49  41 SW8       30.07F
TOPEKA FORBES  SUNNY     74  52  46 SW13      30.08S
$$



USA.gov is the U.S. government's official web portal to all federal, state and local government web resources and services.